Weather History for San Jose, Costa Rica

Change the Weather History Date:

Monday, February 10, 2014

  Actual Average Record
Temperature  
Mean Temperature 76 °F -  
Max Temperature 86 °F 82 °F 87 °F (1998)
Min Temperature 66 °F 64 °F 64 °F (2005)
Cooling Degree Days 11    
Growing Degree Days 26 (Base 50)    
Moisture  
Dew Point 58 °F    
Average Humidity 55    
Maximum Humidity 73    
Minimum Humidity 32    
Precipitation  
Precipitation 0.00 in 0.01 in - ()
Sea Level Pressure  
Sea Level Pressure 29.93 in    
Wind  
Wind Speed 10 mph ()    
Max Wind Speed 18 mph    
Max Gust Speed 29 mph    
Visibility 7.9 miles    
Events      
Averages and records for this station are not official NWS values.
T = Trace of Precipitation, MM = Missing Value Source: Averaged Metar Reports

Daily Weather History Graph

Daily Weather History Graph

Search for Another Location

Airport:

Trip Planner

Search our weather history database for the weather conditions in past years. The results will help you decide how hot, cold, wet, or windy it might be!

Date:

Astronomy

Feb. 10, 2014 Rise Set
Actual Time 5:57 AM CST 5:44 PM CST
Civil Twilight 5:36 AM CST 6:06 PM CST
Nautical Twilight 5:11 AM CST 6:31 PM CST
Astronomical Twilight 4:46 AM CST 6:55 PM CST
Moon 2:29 PM CST (2/10) 2:33 AM CST (2/10)
Length of Visible Light 12h 29m
Length of Day
11h 46m
Waxing Gibbous, 85% of the Moon is Illuminated
Feb 10
Waxing Gibbous
Feb 14
Full
Feb 22
Last Quarter
Mar 1
New
Mar 8
First Quarter

Hourly Weather History & Observations

Time (CST) Temp. Heat Index Dew Point Humidity Pressure Visibility Wind Dir Wind Speed Gust Speed Precip Events Conditions
12:00 AM 69 °F - 59 °F 62% 29.84 in 12 mi NNE 8.1 mph - -   Scattered Clouds
12:00 AM 69.8 °F - 59.0 °F 68% 29.99 in 6.2 mi NNE 4.6 mph - N/A   Partly Cloudy
1:00 AM 68.0 °F - 59.0 °F 73% 29.96 in 6.2 mi East 6.9 mph - N/A   Partly Cloudy
2:00 AM 68.0 °F - 57.2 °F 68% 29.93 in 6.2 mi ESE 11.5 mph - N/A   Partly Cloudy
3:00 AM 68 °F - 56 °F 56% 29.78 in 12 mi ESE 12.7 mph - -   Scattered Clouds
3:00 AM 68.0 °F - 55.4 °F 64% 29.92 in 6.2 mi ESE 12.7 mph - N/A   Partly Cloudy
4:00 AM 68.0 °F - 57.2 °F 68% 29.94 in 6.2 mi East 9.2 mph - N/A   Partly Cloudy
5:00 AM 68.0 °F - 57.2 °F 68% 29.95 in 6.2 mi ESE 11.5 mph 23.0 mph N/A   Partly Cloudy
6:00 AM 69 °F - 57 °F 57% 29.83 in 12 mi ESE 11.5 mph - -   Scattered Clouds
6:00 AM 69.8 °F - 57.2 °F 64% 29.96 in 6.2 mi ESE 11.5 mph - N/A   Partly Cloudy
7:00 AM 71.6 °F - 59.0 °F 64% 29.98 in 6.2 mi East 11.5 mph 23.0 mph N/A   Partly Cloudy
8:00 AM 73.4 °F - 57.2 °F 57% 29.99 in 6.2 mi East 15.0 mph 26.5 mph N/A   Partly Cloudy
9:00 AM 78 °F - 56 °F 37% 29.86 in 12 mi East 12.7 mph - -   Scattered Clouds
9:00 AM 78.8 °F - 57.2 °F 47% 30.01 in 6.2 mi East 12.7 mph 24.2 mph N/A   Partly Cloudy
10:00 AM 78.8 °F - 55.4 °F 44% 30.01 in 6.2 mi ESE 11.5 mph 23.0 mph N/A   Partly Cloudy
11:00 AM 80.6 °F 80.5 °F 55.4 °F 42% 30.00 in 6.2 mi East 11.5 mph 23.0 mph N/A   Partly Cloudy
12:00 PM 82 °F - 57 °F 33% 29.82 in 12 mi East 11.5 mph - -   Scattered Clouds
12:00 PM 82.4 °F 82.0 °F 57.2 °F 42% 29.98 in 6.2 mi East 11.5 mph 23.0 mph N/A   Partly Cloudy
1:00 PM 84.2 °F 83.0 °F 55.4 °F 37% 29.95 in 6.2 mi East 18.4 mph - N/A   Partly Cloudy
2:00 PM 84.2 °F 83.0 °F 55.4 °F 37% 29.93 in 6.2 mi East 11.5 mph 23.0 mph N/A   Partly Cloudy
3:00 PM 83 °F - 58 °F 32% 29.76 in 12 mi ESE 11.5 mph - -   Scattered Clouds
3:00 PM 84.2 °F 83.5 °F 57.2 °F 40% 29.91 in 6.2 mi ESE 11.5 mph - N/A   Scattered Clouds
4:00 PM 80.6 °F 81.1 °F 59.0 °F 48% 29.91 in 6.2 mi ESE 12.7 mph - N/A   Partly Cloudy
5:00 PM 77.0 °F - 60.8 °F 57% 29.92 in 6.2 mi ESE 9.2 mph - N/A   Scattered Clouds
6:00 PM 73 °F - 59 °F 53% 29.83 in 12 mi ESE 12.7 mph - -   Partly Cloudy
6:00 PM 73.4 °F - 59.0 °F 61% 29.94 in 6.2 mi ESE 12.7 mph - N/A   Scattered Clouds
7:00 PM 71.6 °F - 57.2 °F 60% 29.96 in 6.2 mi ESE 12.7 mph - N/A   Partly Cloudy
8:00 PM 69.8 °F - 59.0 °F 68% 29.99 in - East 10.4 mph 21.9 mph N/A   Clear
9:00 PM 70 °F - 59 °F 61% 29.84 in 12 mi East 13.8 mph - -  
9:00 PM 69.8 °F - 59.0 °F 68% 29.99 in - East 13.8 mph 25.3 mph N/A   Clear
10:00 PM 71.6 °F - 59.0 °F 64% 29.99 in - East 13.8 mph 28.8 mph N/A   Clear
11:00 PM 69.8 °F - 59.0 °F 68% 29.98 in - East 15.0 mph 26.5 mph N/A   Clear